[[{"header":{"parameterUnit":"m.s-1","parameterCategory":1,"la1":30.2991,"la2":30.254,"lo1":-89.0895,"lo2":-89.0444,"dy":0.0017,"dx":0.0017,"nx":28,"ny":28,"refTime":"2025-01-13T03:00:00:Z","depth":0,"parameterNumber":2,"parameterNumberName":"U-component_of_WINDS"},"data":[0,0,0,0,0,0,0,0,0,0,0,0,0,0,0,0,0,0,0,0,0,0,0,0,0,0,0,0,0,0,0,0,0,0,0,0,0,0,0,0,0,0,0,0,0,0,0,0,0,0,0,0,0,0,0,0,0,0,-3.2448,-3.2449,0,-3.2525,-3.2525,-3.2526,-3.2475,-3.2472,-3.247,-3.2468,-3.2544,-3.2548,-3.2552,0,0,0,0,0,0,0,0,0,0,0,0,0,-3.2255,-3.2259,-3.2448,-3.2449,-3.245,-3.2524,-3.2525,-3.2526,-3.2475,-3.2472,-3.247,-3.2467,-3.2542,-3.2547,-3.2552,0,0,0,0,0,0,0,0,0,0,0,0,0,-3.2336,-3.226,-3.2448,-3.2433,-3.2433,-3.2524,-3.2525,-3.2527,-3.2476,-3.2472,-3.2469,-3.2466,-3.2541,-3.2547,-3.2553,-3.2662,0,0,-3.2572,-3.2575,0,0,0,0,0,0,0,0,-3.2331,-3.2343,-3.2435,-3.2435,-3.2434,-3.2487,-3.2485,-3.2572,-3.2477,-3.2459,-3.2468,-3.2464,-3.2527,-3.2534,-3.2556,-3.2665,-3.2669,-3.2573,-3.2577,-3.2579,-3.2581,0,0,0,0,0,0,0,-3.2326,-3.2339,-3.2478,-3.2436,-3.2436,-3.2422,-3.243,-3.2501,-3.2512,-3.2461,-3.2457,-3.2467,-3.2526,-3.2551,-3.2558,-3.267,-3.2573,-3.2578,-3.2582,-3.2584,-3.2872,-3.2876,0,0,0,0,0,0,-3.2322,-3.2335,-3.2476,-3.248,-3.2373,-3.2429,-3.2437,-3.2473,-3.2511,-3.2514,-3.247,-3.2464,-3.2541,-3.2551,-3.256,-3.2691,-3.2579,-3.2585,-3.2589,-3.2868,-3.2873,-3.2877,0,0,0,0,0,0,-3.2318,-3.2335,-3.2473,-3.2407,-3.2423,-3.2436,-3.2477,-3.2477,-3.2501,-3.2518,-3.252,-3.2493,-3.2539,-3.2551,-3.2637,-3.2693,-3.2588,-3.2594,-3.2864,-3.287,-3.2875,-3.2954,0,0,0,0,0,0,-3.2312,-3.2334,-3.2376,-3.2408,-3.2427,-3.255,-3.248,-3.2481,-3.2512,-3.2505,-3.254,-3.2542,-3.2537,-3.2628,-3.2644,-3.27,-3.2599,-3.2859,-3.2867,-3.2873,-3.2946,-3.2961,-3.2975,0,0,0,0,0,-3.2306,-3.2394,-3.2378,-3.2396,-3.248,-3.2553,-3.2564,-3.2557,-3.2517,-3.2559,-3.257,-3.2541,-3.2684,-3.2637,-3.2654,-3.2713,-3.2855,-3.2864,-3.2873,-3.294,-3.2959,-3.2974,0,0,0,0,0,0,-3.2367,-3.2398,-3.2381,-3.2483,-3.2516,-3.2544,-3.2597,-3.2577,-3.2621,-3.2613,-3.2602,-3.261,-3.27,-3.2715,-3.2662,-3.2821,-3.2763,-3.2776,-3.2809,-3.2826,-3.284,-3.2836,-3.2604,0,0,0,0,0,-3.2393,-3.245,-3.2474,-3.2561,-3.2579,-3.2585,-3.2617,-3.2609,-3.2642,-3.2655,-3.2673,-3.2705,-3.2758,-3.2792,-3.2841,-3.2947,-3.2954,-3.2996,-3.301,-3.3022,-3.3033,-3.3091,-3.311,-3.2906,-3.2906,-3.2906,0,0,-3.2446,-3.247,-3.2507,-3.2574,-3.2599,-3.2658,-3.2597,-3.2662,-3.2706,-3.2665,-3.2748,-3.2761,-3.2797,-3.2894,-3.2937,-3.2909,-3.3091,-3.3033,-3.3042,-3.3047,-3.3102,-3.3121,-3.3139,-3.2912,-3.2911,-3.291,0,0,-3.2574,-3.2598,-3.2674,-3.27,-3.2738,-3.2742,-3.276,-3.2792,-3.28,-3.2883,-3.2853,-3.2904,-3.2994,-3.3021,-3.3047,-3.3184,-3.3159,-3.32,-3.3275,-3.3331,-3.3347,-3.3361,-3.3412,-3.343,-3.3211,-3.3211,-3.3211,0,-3.2635,-3.2724,-3.2715,-3.2783,-3.2813,-3.2779,-3.2856,-3.2881,-3.2933,-3.2955,-3.2922,-3.3035,-3.3056,-3.3159,-3.3193,-3.3214,-3.3235,-3.3197,-3.3346,-3.336,-3.3373,-3.3421,-3.344,-3.3216,-3.3215,-3.3215,-3.3214,0,-3.2798,-3.286,-3.2917,-3.2969,-3.3006,-3.3077,-3.3079,-3.3116,-3.3105,-3.3112,-3.3196,-3.3221,-3.3275,-3.3298,-3.3287,-3.3399,-3.3381,-3.3347,-3.3289,-3.3398,-3.3442,-3.346,-3.3223,-3.3221,-3.322,-3.3218,0,0,-3.2969,-3.3015,-3.3036,-3.306,-3.3099,-3.3147,-3.3216,-3.327,-3.3303,-3.3339,-3.3397,-3.3474,-3.3444,-3.3473,-3.3464,-3.3513,-3.3622,-3.3473,-3.3474,-3.3501,-3.3748,-3.3775,-3.3796,-3.3605,-3.3608,-3.3611,-3.3746,0,-3.31,-3.3223,-3.3217,-3.3332,-3.3389,-3.3357,-3.3418,-3.3448,-3.3456,-3.3505,-3.3513,-3.3569,-3.3523,-3.3541,-3.3588,-3.3599,-3.3671,-3.3588,-3.3659,-3.3662,-3.3653,-3.3819,-3.3847,-3.3974,-3.3763,-3.3766,-3.3768,0,-3.327,-3.3314,-3.3435,-3.3467,-3.349,-3.3545,-3.3594,-3.3641,-3.3674,-3.3676,-3.3709,-3.3692,-3.3762,-3.3701,-3.3797,-3.3741,-3.3768,-3.3778,-3.3783,-3.379,-3.3723,-3.3833,-3.4014,-3.4034,-3.3795,-3.3793,-3.3791,0,-3.3384,-3.3473,-3.3557,-3.3578,-3.3616,-3.3656,-3.3673,-3.3703,-3.3736,-3.3778,-3.3799,-3.3847,-3.3875,-3.3912,-3.3909,-3.3865,-3.4007,-3.3945,-3.4011,-3.4011,-3.4044,-3.4042,-3.4233,-3.4059,-3.4059,-3.4058,-3.4058,0,-3.3533,-3.3609,-3.3609,-3.3662,-3.3745,-3.3736,-3.3819,-3.3832,-3.3859,-3.3913,-3.3887,-3.3937,-3.3929,-3.3979,-3.3976,-3.4056,-3.4068,-3.4072,-3.4071,-3.4076,-3.4076,-3.4095,-3.4087,-3.4063,-3.4062,-3.4061,-3.406,0,-3.3675,-3.3679,-3.3769,-3.3798,-3.3807,-3.3867,-3.3892,-3.3941,-3.3946,-3.4014,-3.4029,-3.4037,-3.4095,-3.4095,-3.416,-3.4158,-3.4258,-3.4245,-3.4247,-3.4245,-3.4311,-3.4306,-3.4524,-3.4552,-3.4358,-3.436,-3.4361,0,-3.3771,-3.3829,-3.3864,-3.3899,-3.3919,-3.3975,-3.4008,-3.4001,-3.4036,-3.4078,-3.4122,-3.4178,-3.4222,-3.4316,-3.4327,-3.4377,-3.4367,-3.444,-3.4374,-3.4378,-3.437,-3.4367,-3.4373,-3.4453,-3.4455,-3.4457,-3.4459,0,-3.394,-3.3939,-3.3989,-3.404,-3.4081,-3.412,-3.4156,-3.4185,-3.4182,-3.4223,-3.4282,-3.4317,-3.4384,-3.444,-3.4488,-3.4504,-3.4482,-3.4479,-3.4497,-3.4503,-3.4503,-3.4506,-3.4284,-3.4474,-3.4473,-3.4472,-3.4471,-3.447,-3.4063,-3.4114,-3.4147,-3.4203,-3.4229,-3.4264,-3.4312,-3.4323,-3.4373,-3.4428,-3.442,-3.4487,-3.4517,-3.458,-3.4601,-3.4652,-3.4627,-3.4653,-3.4659,-3.4666,-3.4675,-3.4493,-3.4661,-3.466,-3.466,-3.4659,-3.4659,0,-3.4233,-3.4253,-3.4305,-3.4357,-3.4401,-3.4375,-3.4413,-3.4452,-3.4511,-3.4543,-3.4587,-3.4655,-3.4709,-3.4724,-3.4776,-3.4814,-3.4805,-3.4828,-3.4826,-3.483,-3.4694,-3.4674,-3.4835,-3.4835,-3.4835,-3.4835,-3.4835,-3.4834,-3.4327,-3.4411,-3.4414,-3.451,-3.4529,-3.4595,-3.4619,-3.4651,-3.4676,-3.4754,-3.4798,-3.4808,-3.4833,-3.4886,-3.4934,-3.4937,-3.4958,-3.4986,-3.4985,-3.4857,-3.484,-3.4823,-3.4804,-3.499,-3.499,-3.5117,-3.5118,-3.5119]},{"header":{"parameterUnit":"m.s-1","parameterCategory":1,"la1":30.2991,"la2":30.254,"lo1":-89.0895,"lo2":-89.0444,"dy":0.0017,"dx":0.0017,"nx":28,"ny":28,"refTime":"2025-01-13T03:00:00:Z","depth":0,"parameterNumber":3,"parameterNumberName":"V-component_of_WINDS"},"data":[0,0,0,0,0,0,0,0,0,0,0,0,0,0,0,0,0,0,0,0,0,0,0,0,0,0,0,0,0,0,0,0,0,0,0,0,0,0,0,0,0,0,0,0,0,0,0,0,0,0,0,0,0,0,0,0,0,0,-6.1119,-6.112,0,-6.1172,-6.1173,-6.1174,-6.1098,-6.1095,-6.1093,-6.109,-6.114,-6.1143,-6.1147,0,0,0,0,0,0,0,0,0,0,0,0,0,-6.0947,-6.0951,-6.1119,-6.112,-6.1121,-6.1172,-6.1173,-6.1174,-6.1098,-6.1095,-6.1092,-6.1089,-6.1138,-6.1143,-6.1147,0,0,0,0,0,0,0,0,0,0,0,0,0,-6.1013,-6.0952,-6.1119,-6.1089,-6.1087,-6.1172,-6.1173,-6.1174,-6.1099,-6.1095,-6.1091,-6.1087,-6.1137,-6.1142,-6.1148,-6.1263,0,0,-6.1166,-6.1168,0,0,0,0,0,0,0,0,-6.101,-6.102,-6.1093,-6.1091,-6.1089,-6.1125,-6.113,-6.1204,-6.11,-6.1094,-6.109,-6.1085,-6.1138,-6.1143,-6.1162,-6.1266,-6.1268,-6.1166,-6.117,-6.1172,-6.1174,0,0,0,0,0,0,0,-6.1005,-6.1017,-6.114,-6.1094,-6.1092,-6.1072,-6.1077,-6.1144,-6.1138,-6.1095,-6.1089,-6.1097,-6.1136,-6.1156,-6.1162,-6.1268,-6.1166,-6.1171,-6.1174,-6.1177,-6.147,-6.1474,0,0,0,0,0,0,-6.1005,-6.1014,-6.1138,-6.1142,-6.1039,-6.1078,-6.1083,-6.1117,-6.1137,-6.1136,-6.11,-6.1093,-6.1148,-6.1156,-6.1164,-6.1301,-6.1172,-6.1177,-6.1181,-6.1466,-6.1471,-6.1476,0,0,0,0,0,0,-6.1001,-6.1017,-6.1136,-6.1076,-6.109,-6.1085,-6.1124,-6.112,-6.1141,-6.1141,-6.1139,-6.1123,-6.1146,-6.1156,-6.124,-6.1301,-6.118,-6.1185,-6.146,-6.1467,-6.1473,-6.1575,0,0,0,0,0,0,-6.0997,-6.1016,-6.1061,-6.1078,-6.1093,-6.1213,-6.1127,-6.1124,-6.1151,-6.1143,-6.1162,-6.1161,-6.1143,-6.1231,-6.1245,-6.1307,-6.1189,-6.1455,-6.1463,-6.1471,-6.1566,-6.1584,-6.16,0,0,0,0,0,-6.0991,-6.1086,-6.1064,-6.1079,-6.115,-6.1217,-6.1225,-6.1205,-6.1157,-6.1201,-6.1201,-6.116,-6.1292,-6.1241,-6.1256,-6.132,-6.1451,-6.1461,-6.1471,-6.1559,-6.1581,-6.1599,0,0,0,0,0,0,-6.1074,-6.1088,-6.1063,-6.1167,-6.1192,-6.1204,-6.1259,-6.1229,-6.1266,-6.1256,-6.1227,-6.1232,-6.1322,-6.1329,-6.1272,-6.1432,-6.1363,-6.1377,-6.1425,-6.1446,-6.1463,-6.1459,-6.1194,0,0,0,0,0,-6.1105,-6.116,-6.1168,-6.1259,-6.1273,-6.1264,-6.1293,-6.1275,-6.1298,-6.1308,-6.1314,-6.1337,-6.1384,-6.1415,-6.1458,-6.1566,-6.1569,-6.1618,-6.1634,-6.1648,-6.166,-6.1719,-6.174,-6.1508,-6.1508,-6.1508,0,0,-6.1169,-6.1183,-6.1219,-6.1276,-6.1293,-6.135,-6.1273,-6.1336,-6.1377,-6.1317,-6.1397,-6.1403,-6.1426,-6.1524,-6.1566,-6.1532,-6.1725,-6.1661,-6.1672,-6.1676,-6.1731,-6.1753,-6.1773,-6.1515,-6.1513,-6.1512,0,0,-6.1314,-6.133,-6.1409,-6.1428,-6.1455,-6.1449,-6.1467,-6.1485,-6.1487,-6.1567,-6.1523,-6.1571,-6.1652,-6.1671,-6.1691,-6.1844,-6.1808,-6.1858,-6.1946,-6.2004,-6.2022,-6.2038,-6.2094,-6.2114,-6.187,-6.187,-6.1871,0,-6.1389,-6.1475,-6.1452,-6.1519,-6.1545,-6.1494,-6.1572,-6.1591,-6.163,-6.1649,-6.161,-6.1711,-6.1723,-6.1824,-6.1862,-6.188,-6.19,-6.1857,-6.2022,-6.2037,-6.2052,-6.2105,-6.2125,-6.1876,-6.1876,-6.1875,-6.1875,0,-6.1566,-6.1626,-6.1685,-6.1727,-6.1759,-6.1831,-6.1818,-6.1853,-6.1833,-6.183,-6.1913,-6.1926,-6.1971,-6.1993,-6.1972,-6.2091,-6.2069,-6.2026,-6.1957,-6.2081,-6.213,-6.2149,-6.1885,-6.1883,-6.1881,-6.188,0,0,-6.1766,-6.1795,-6.1817,-6.1836,-6.1863,-6.1908,-6.1976,-6.2022,-6.2054,-6.2082,-6.2139,-6.2209,-6.2169,-6.2192,-6.2173,-6.2223,-6.2345,-6.2174,-6.2174,-6.2206,-6.2478,-6.2511,-6.2535,-6.232,-6.2324,-6.2327,-6.2476,0,-6.1912,-6.2034,-6.2016,-6.2133,-6.2188,-6.214,-6.22,-6.2222,-6.2222,-6.2266,-6.2264,-6.2315,-6.2259,-6.2273,-6.232,-6.232,-6.2399,-6.2309,-6.2373,-6.2375,-6.237,-6.256,-6.2595,-6.2735,-6.2495,-6.2498,-6.25,0,-6.2099,-6.2137,-6.2261,-6.228,-6.2302,-6.2356,-6.2397,-6.2441,-6.2464,-6.246,-6.2487,-6.2458,-6.2526,-6.2454,-6.2547,-6.2486,-6.2511,-6.2515,-6.2519,-6.2525,-6.2446,-6.2572,-6.2779,-6.2801,-6.253,-6.2527,-6.2525,0,-6.2234,-6.2316,-6.24,-6.2417,-6.2441,-6.2481,-6.2492,-6.2512,-6.2541,-6.2576,-6.2594,-6.2635,-6.2658,-6.2691,-6.2674,-6.2623,-6.277,-6.2696,-6.2768,-6.2768,-6.2802,-6.28,-6.3017,-6.2816,-6.2815,-6.2815,-6.2815,0,-6.24,-6.2478,-6.2462,-6.2514,-6.2599,-6.2576,-6.266,-6.2666,-6.2684,-6.2735,-6.2695,-6.2744,-6.2718,-6.2764,-6.2751,-6.283,-6.284,-6.2838,-6.2834,-6.2843,-6.2843,-6.2859,-6.285,-6.2821,-6.2819,-6.2818,-6.2817,0,-6.2566,-6.2558,-6.2648,-6.2664,-6.2669,-6.2731,-6.2744,-6.2792,-6.2788,-6.2854,-6.2867,-6.2861,-6.2914,-6.29,-6.2956,-6.2947,-6.3048,-6.303,-6.3041,-6.3037,-6.3109,-6.3103,-6.3345,-6.3376,-6.3154,-6.3156,-6.3158,0,-6.2673,-6.2732,-6.2755,-6.2788,-6.2803,-6.2855,-6.2885,-6.2864,-6.2896,-6.2928,-6.2972,-6.3022,-6.306,-6.3146,-6.3145,-6.3188,-6.3172,-6.3254,-6.3178,-6.3186,-6.3175,-6.3172,-6.3178,-6.327,-6.3272,-6.3274,-6.3276,0,-6.2864,-6.2858,-6.2904,-6.2949,-6.2986,-6.302,-6.3049,-6.3077,-6.3059,-6.3097,-6.3151,-6.3181,-6.324,-6.3289,-6.3329,-6.3338,-6.3304,-6.33,-6.3319,-6.3329,-6.3333,-6.3333,-6.3083,-6.3294,-6.3293,-6.3291,-6.329,-6.3289,-6.3005,-6.3055,-6.308,-6.3132,-6.3153,-6.3182,-6.3228,-6.3231,-6.3276,-6.3324,-6.3308,-6.337,-6.3391,-6.3441,-6.3456,-6.3503,-6.3472,-6.3499,-6.3506,-6.3514,-6.3523,-6.3325,-6.351,-6.3509,-6.3509,-6.3508,-6.3508,0,-6.3195,-6.3209,-6.3257,-6.3301,-6.3342,-6.3308,-6.3339,-6.3375,-6.3431,-6.3455,-6.3494,-6.3556,-6.3604,-6.3608,-6.3652,-6.3689,-6.3675,-6.3702,-6.3699,-6.3702,-6.3548,-6.3528,-6.3713,-6.3713,-6.3713,-6.3713,-6.3713,-6.3713,-6.3299,-6.3383,-6.338,-6.3473,-6.3485,-6.3548,-6.3569,-6.3595,-6.3614,-6.3686,-6.3726,-6.3729,-6.3744,-6.379,-6.3831,-6.3831,-6.385,-6.3883,-6.3877,-6.3733,-6.3713,-6.3693,-6.3674,-6.3887,-6.3887,-6.4027,-6.4028,-6.4029]}]]